www.pogodaiklimat.ru

ПОГОДА в Форт Кэмпбелл, KY

  • Прогноз погоды в Форт Кэмпбелл
  • Монитор погоды в Форт Кэмпбелл
  • Климат в Форт Кэмпбелл

АРХИВ ПОГОДЫ в Форт Кэмпбелл

Время (UTC), дата Ветер
(напр.,м/с)
 
Видим.   Явления Облачность Т
(С)
Тd
(С)
f
(%)
Тe
(С)
Тes
(С)
Комфортность

P
(гПа)

Po
(гПа)
Тmin
(С)
Tmax
(С)
R
(мм)
SD
(см)
15:33 24.06 З  10  16 км    10/10 60 м  +22.0  +22.0  100  +29  +29  очень
душно 
1008.9  988.4         
15:43 24.06 З  9
{13} 
16 км  слабая морось  10/10 60 м  +22.0  +22.0  100  +29  +29  очень
душно 
1009.2  988.7         
15:45 24.06 З  7
{13} 
16 км  слабая морось  10/10 60 м  +22.0  +22.0  100  +29  +29  очень
душно 
1009.2  988.7         
15:56 24.06 З  7
{10} 
16 км  слабая морось  10/10 330 м  +21.9  +21.9  100  +29  +29  очень
душно 
1009.6  989.0         
16:04 24.06 З  6
{9} 
16 км    10/8 450 м
[средняя] 
+22.0  +22.0  100  +29  +29  очень
душно 
1009.6  989.0         
16:07 24.06 З  16 км    10/8 420 м
[средняя] 
+22.0  +22.0  100  +29  +29  очень
душно 
1009.6  989.0         
16:12 24.06 З  16 км    10/8 360 м
[средняя] 
+23.0  +23.0  100  +32  +32  очень
душно 
1009.6  989.0         
16:17 24.06 З  8
{9} 
16 км    10/10 420 м  +23.0  +22.0  94  +31  +31  очень
душно 
1009.6  989.0         
16:21 24.06 З  16 км    8/8 480 м  +23.0  +22.0  94  +31  +32  очень
душно 
1009.6  989.0         
16:22 24.06 З  16 км    8/8 420 м  +23.0  +22.0  94  +31  +32  очень
душно 
1009.6  989.0         
16:25 24.06 З  5
{9} 
16 км    8/8 480 м  +23.0  +22.0  94  +31  +33  очень
душно 
1009.6  989.0         
16:50 24.06 З  16 км    8/8 510 м
[средняя] 
+24.0  +21.0  83  +30  +31  очень
душно 
1009.9  989.4         
16:51 24.06 З  16 км    8/8 510 м  +24.0  +21.0  83  +30  +31  очень
душно 
1009.9  989.4         
16:56 24.06 З  16 км    10/8 510 м
[средняя] 
+24.3  +21.2  83  +31  +31  очень
душно 
1009.6  989.0  +21.2  +24.3  15.7   
16:57 24.06 З  16 км    8/8 510 м
[средняя] 
+24.0  +21.0  83  +30  +31  очень
душно 
1009.9  989.4         
16:59 24.06 ЮЗ  16 км    8/8 540 м
[средняя] 
+24.0  +21.0  83  +30  +30  очень
душно 
1009.9  989.4         
17:00 24.06 З  16 км    10/8 510 м
[средняя] 
+24.0  +21.0  83  +30  +30  очень
душно 
1009.9  989.4         
17:12 24.06 З  16 км    8/8 660 м
[средняя] 
+25.0  +21.0  78  +31  +32  очень
душно 
1009.9  989.4         
17:13 24.06 З  16 км    8/8 570 м
[средняя] 
+25.0  +21.0  78  +31  +32  очень
душно 
1009.9  989.4         
17:16 24.06 З  16 км    8/5 570 м
[средняя] 
+25.0  +21.0  78  +31  +32  очень
душно 
1009.9  989.4         
17:56 24.06 З  16 км    2/2 690 м  +25.9  +20.4  72  +32  +36  очень
душно 
1009.9  989.4         
18:56 24.06 ЮЗ  16 км    5/2 990 м
[средняя] 
+27.1  +19.4  63  +33  +34  очень
душно 
1009.9  989.4         
19:56 24.06 ЮЗ  16 км    2/2 1140 м  +27.9  +19.9  62  +34  +37  очень
душно 
1009.8  989.4         
20:56 24.06 ЮЗ  16 км    ясно  +28.3  +19.2  58  +34  +36  очень
душно 
1009.8  989.4         
21:56 24.06 ЮЗ  8
{11} 
16 км    2/2 1230 м  +27.8  +19.3  60  +33  +34  очень
душно 
1009.8  989.4         
22:56 24.06 ЮЗ  16 км    ясно  +27.0  +18.5  60  +32  +33  очень
душно 
1010.5  990.0  +24.4  +28.3     
23:56 24.06 ЮЗ  16 км    ясно  +25.4  +19.0  68  +30  +31  душно  1011.3  990.7         
00:56 25.06 ЮЗ  16 км    ясно  +23.0  +19.5  81  +30  +30  очень
душно 
1011.6  991.0         
01:56 25.06 ЮЗ  16 км    ясно  +22.2  +20.3  89  +28  +28  душно  1012.3  991.7         
02:56 25.06 ЮЗ  16 км    ясно  +21.4  +20.2  93  +27  +27  душно  1012.3  991.7         
03:56 25.06 ЮЗ  16 км    ясно  +20.6  +20.3  98  +25  +25  комфорт  1012.6  992.0         
04:56 25.06 ЮЗ  16 км    ясно  +20.6  +20.6  100  +25  +25  комфорт  1013.3  992.7  +20.6  +26.9     
05:56 25.06 З  16 км    ясно  +21.0  +20.8  99  +27  +27  душно  1013.3  992.7         
06:56 25.06 СЗ  16 км    ясно  +21.3  +20.8  97  +27  +27  душно  1013.9  993.3         
07:56 25.06 З  16 км    2/2 930 м  +21.0  +21.0  100  +27  +27  душно  1014.6  994.0         
08:56 25.06 ЮЗ  16 км    ясно  +20.0  +20.0  100  +24  +24  комфорт  1014.9  994.3         
09:56 25.06 ЮЗ  16 км    ясно  +19.4  +19.4  100  +23  +23  комфорт  1015.7  995.0         
10:56 25.06 ЮЗ  16 км    ясно  +21.7  +21.3  98  +28  +28  душно  1016.3  995.7  +19.3  +21.7     
11:56 25.06 ЮЗ  16 км    ясно  +23.1  +22.1  94  +31  +33  очень
душно 
1017.0  996.3         
12:56 25.06   16 км    ясно  +25.8  +16.9  58  +30  +36  душно  1017.7  997.0         
13:56 25.06 Ю  16 км    ясно  +26.3  +16.5  55  +30  +39  душно  1017.7  997.0         
14:56 25.06 ЮЗ  16 км    ясно  +27.6  +17.7  55  +32  +43  очень
душно 
1018.0  997.3         
15:56 25.06 З  16 км    ясно  +28.0  +16.6  50  +32  +45  душно  1018.0  997.3         
16:56 25.06 ЮЗ  16 км    ясно  +28.4  +16.9  50  +32  +44  душно  1018.0  997.3  +21.8  +28.4     
17:56 25.06 З  16 км    ясно  +28.8  +16.7  48  +32  +48  душно  1017.6  997.0         
18:56 25.06 ЮЗ  16 км    ясно  +29.4  +16.9  47  +33  +51  опасность
солнечного
удара 
1017.3  996.7         
19:56 25.06 З  16 км    ясно  +29.4  +16.2  45  +33  +45  душно  1017.0  996.3         
20:56 25.06 ЮЗ  16 км    ясно  +29.9  +17.3  47  +34  +41  очень
душно 
1017.3  996.7         

 

Местоположение метеостанции Campbell Army Airfield: широта 36.6667 долгота -87.5000 высота над уровнем моря 174 м.

В архиве по умолчанию представлена погода в Форт Кэмпбелл за последние 1-2 суток. Обновление информации о фактической погоде в базе происходит ежечасно! Архивные данные за месяц целиком и за предыдущие месяцы Вы можете получить, выбрав интересующий диапазон дат из раскрывающегося списка и нажав кнопку "Ввод!".

Внимание! Архив погоды МЕТАР в базе сайта хранится не более 60 дней. Нет смысла пытаться выбрать более раннюю дату.

Внимание! Время в таблицах - всемирное. Для получения местного времени необходимо прибавить поправку, которая в Форт Кэмпбелл равна -6 ч.

Ветер - указаны скорость ветра в м/с и направление, откуда дует ветер: С - северный, СВ - северо-восточный, В - восточный, ЮВ - юго-восточный, Ю - южный, ЮЗ - юго-западный, З - западный, СЗ - северо-западный.
Видимость - горизонтальная дальность видимости в метрах или километрах. При видимости от 1 до 10 км при отсутствии осадков обычно наблюдается дымка, при ухудшении видимости до 1 км и менее - туман. В сухую погоду видимость может ухудшаться дымом, пылью или мглою.
Атмосферные явления - указаны явления, наблюдавшиеся в указанный момент времени.
Облачность - указаны через наклонную черту верхняя и нижняя облачность в баллах и высота нижней границы облаков в метрах. Внимание: облачность, как и прочие метеорологические величины в США измеряются автоматическими метеостанциями. Указанные значения в баллах носят условный характер и показывают процент времени, в течение которого, в среднем, лазерный луч высотомера отражался от облаков обратно.
T - Температура воздуха - температура, измеренная на высоте 2 м над землей.
Td - Температура точки росы - температура, при понижении до которой содержащийся в воздухе водяной пар достигнет насыщения.
f - Относительная влажность воздуха - влажноcть воздуха, измеренная на высоте 2 м над землей.
Te - Эффективная температура - температура, которую ощущает одетый по сезону человек в тени. Характеристика душности погоды. При расчете учитывается влияние влажности воздуха и скорости ветра на теплоощущения человека.
Tes - Эффективная температура на солнце - температура, которую ощущает человек, с поправкой на солнечный нагрев. Характеристика знойности погоды. Зависит от высоты солнца над горизонтом, облачности и скорости ветра. Ночью, в пасмурную погоду, а также при ветре 12 м/с и более поправка равна нулю.
P - Атмосферное давление - приведенное к уровню моря атмосферное давление.
Po - Атмосферное давление - измеренное на уровне метеостанции атмосферное давление.
Tmin - Минимальная температура - минимум температуры воздуха на высоте 2 м над землей.
Tmax - Максимальная температура - максимум температуры воздуха на высоте 2 м над землей.
R - Количество осадков - Количество выпавших осадков за 3 или 6 часов, мм.
SD - Снежный покров - Высота снежного покрова, см.